This demonstration page uses our WeatherBlox Daily Observations layout. Learn more.

Left ArrowRight Arrow

Hourly Observations for July 3, 2022

Temp ( °F °C ) Dew Point ( °F °C ) Humidity (%) Winds ( mph kmh ) Pressure ( in mb ) Visibility ( mi km ) Precip ( " mm )
12:53 am 00:53 Clear 71 21.7 51 10.6 49 49 S 13 20 29.82 1010 10 16 0.00 0.00
1:53 am 01:53 Clear 69 20.6 51 10.6 53 53 S 10 17 29.84 1010 10 16 0.00 0.00
2:53 am 02:53 Clear 66 18.9 52 11.1 61 61 S 6 9 29.86 1011 10 16 0.00 0.00
3:53 am 03:53 Clear 64 17.8 51 10.6 63 63 SSW 8 13 29.87 1012 10 16 0.00 0.00
4:53 am 04:53 Clear 62 16.7 51 10.6 67 67 SSW 7 11 29.88 1012 10 16 0.00 0.00
5:53 am 05:53 Sunny 61 16.1 51 10.6 70 70 SSW 7 11 29.90 1012 10 16 0.00 0.00
6:53 am 06:53 Sunny 60 15.6 51 10.6 72 72 S 6 9 29.91 1013 10 16 0.00 0.00
7:53 am 07:53 Sunny 61 16.1 51 10.6 70 70 SSE 6 9 29.91 1013 10 16 0.00 0.00
8:53 am 08:53 Mostly Sunny 63 17.2 51 10.6 65 65 VRB 3 6 29.91 1013 10 16 0.00 0.00
9:53 am 09:53 Sunny 67 19.4 52 11.1 59 59 SSE 6 9 29.90 1013 10 16 0.00 0.00
10:53 am 10:53 Sunny 70 21.1 52 11.1 53 53 S 8 13 29.89 1012 10 16 0.00 0.00
11:53 am 11:53 Sunny 72 22.2 52 11.1 50 50 S 7 11 29.88 1012 10 16 0.00 0.00
12:53 pm 12:53 Sunny 76 24.4 47 8.3 36 36 SSE 15 24 29.87 1012 10 16 0.00 0.00
1:53 pm 13:53 Sunny 77 25 46 7.8 33 33 SSW 16 26 29.87 1012 10 16 0.00 0.00
2:53 pm 14:53 Sunny 79 26.1 48 8.9 34 34 S 16 26 29.86 1011 10 16 0.00 0.00
3:53 pm 15:53 Sunny 79 26.1 47 8.3 32 32 SSE 16 26 29.85 1011 10 16 0.00 0.00
4:53 pm 16:53 Sunny 78 25.6 50 10 37 37 SSW 12 19 29.84 1011 10 16 0.00 0.00
5:53 pm 17:53 Mostly Sunny 77 25 49 9.4 37 37 SSW 9 15 29.83 1010 10 16 0.00 0.00
6:53 pm 18:53 Mostly Cloudy 77 25 50 10 39 39 S 8 13 29.83 1010 10 16 0.00 0.00
7:53 pm 19:53 Cloudy 77 25 50 10 39 39 S 7 11 29.84 1010 10 16 0.00 0.00
8:53 pm 20:53 Cloudy 76 24.4 52 11.1 43 43 ESE 3 6 29.84 1011 10 16 0.00 0.00
9:53 pm 21:53 Cloudy 75 23.9 53 11.7 46 46 S 5 7 29.85 1011 10 16 0.00 0.00
10:53 pm 22:53 Cloudy 75 23.9 53 11.7 46 46 SSW 6 9 29.86 1011 9 14 0.00 0.00
11:53 pm 23:53 Cloudy 75 23.9 43 6.1 32 32 S 9 15 29.87 1011 10 16 0.00 0.00

Powered by AerisWeather